User: anonymous   Login
Location: Newark
(19.5361°N, 155.5761°W)
Time: 19:28:08
(UTC+00:00)
Language:

AAUSAT CUBESAT 2 - Orbit

View from above orbital plane
View from above orbital plane
View from above satellite
View from above satellite

Ground track
Ground track

The orbit data is extracted from the following two-line orbital elements,

1 32788U 08021F   20100.98338657 +.00000468 +00000-0 +47775-4 0  9993
2 32788 097.4933 108.5243 0010072 288.7865 071.2263 14.95002443649082
Epoch (UTC): 09 April 2020 23:36:04
Eccentricity: 0.0010072
inclination: 97.4933°
perigee height: 575 km
apogee height: 589 km
right ascension of ascending node: 108.5243°
argument of perigee: 288.7865°
revolutions per day: 14.95002443
mean anomaly at epoch: 71.2263°
orbit number at epoch: 64908

The dashed part of the orbit path shows where the satellite is in the earth's shadow,  

DLR